Location: General Nathan Twining Observatory
(34.5931°N, 106.8201°W)
Time: 12:44:22
(UTC-06:00)

Daily predictions for brighter satellites

Satellite Brightness Start Highest point End
(mag) Time Altitude Azimuth Time Altitude Azimuth Time Altitude Azimuth
Cosmos 1570 Rocket 4.0 19:59:18 10° S 20:04:35 74° ESE 20:09:51 10° NNE
SJ-6B 3.8 20:02:28 10° S 20:06:05 49° W 20:09:43 10° NNW
Meteor 1-28 Rocket 4.4 20:04:00 10° N 20:07:41 48° WNW 20:11:20 10° SSW
Meteor 1-23 Rocket 4.2 20:04:26 10° N 20:10:06 73° E 20:15:48 10° SSE
Meteor 2-16 Rocket 4.4 20:05:15 10° S 20:11:14 65° E 20:17:15 10° NNE
CZ-2D R/B 4.2 20:08:15 10° SE 20:11:36 29° ENE 20:14:58 10° NNE
Tiangong 1 3.5 20:13:25 10° NW 20:15:37 18° N 20:17:48 10° NE
Hubble Space Telescope 2.5 20:12:46 10° WSW 20:16:03 23° SSW 20:19:21 10° SE
FENGYUN 3A 4.0 20:11:39 10° SE 20:16:42 44° ENE 20:21:45 10° N
Cosmos 1656 4.1 20:13:56 10° S 20:19:08 40° ESE 20:24:19 10° NE
Helios 1A 3.2 20:15:06 10° S 20:19:15 74° WSW 20:23:26 10° NNW
FengYun 1-2 T 4.3 20:14:46 10° SSE 20:20:23 74° ENE 20:25:59 10° N
Cosmos 2227 Rocket 2.4 20:21:16 10° N 20:26:48 52° ENE 20:32:16 10° SE
Cosmos 1821 Rocket 4.2 20:20:44 10° S 20:26:49 75° W 20:32:55 10° N
Cosmos 1605 Rocket 4.0 20:23:39 10° S 20:29:55 65° E 20:36:07 10° NNE
ERS-1 Rocket 4.3 20:28:09 14° ESE 20:30:58 21° ENE 20:34:41 10° NNE
Lacrosse 5 3.7 20:29:30 10° N 20:32:52 17° NE 20:36:04 10° ENE
Cosmos 1461 2.9 20:29:35 10° NNW 20:33:33 55° ENE 20:36:30 16° SE
Cosmos 1346 Rocket 2.7 20:30:22 10° N 20:34:20 78° E 20:38:19 10° SSE
DELTA 2 R/B (1) 3.9 20:32:33 10° WNW 20:38:03 59° NNE 20:42:25 16° E
H-2A R/B 4.1 20:40:46 11° ENE 20:40:55 11° ENE 20:41:53 10° NE
Cosmos 2082 3.7 20:36:20 10° NNW 20:41:56 66° ENE 20:46:55 13° SSE
Cosmos 2297 Rocket 2.5 20:36:34 10° N 20:42:03 49° ENE 20:46:11 17° SE
Cosmos 1898 Rocket 4.4 20:41:04 10° N 20:45:45 31° ENE 20:48:07 21° ESE
Cosmos 1626 Rocket 3.7 20:42:51 10° N 20:47:08 50° E 20:50:16 17° SSE
Cosmos 1455 Rocket 3.9 20:43:42 10° SSW 20:47:54 52° W 20:52:10 10° N
Cosmos 1515 4.3 20:46:59 10° NNE 20:50:32 35° E 20:51:42 28° ESE
CZ-4 DEB 3.7 20:55:43 30° ENE 20:55:43 30° ENE 20:58:26 10° N
RESURS DK-1 4.0 20:53:05 10° NNE 20:56:02 19° ENE 20:56:25 18° ENE
Cosmos 1602 Rocket 3.5 20:52:04 10° N 20:56:30 66° E 20:59:40 18° SSE
Cosmos 468 Rocket 3.9 20:52:32 10° S 20:57:34 62° ESE 21:02:37 10° NNE
Cosmos 2084 4.3 20:55:48 10° N 20:59:30 32° NE 21:00:33 28° E
Cosmos 1743 3.7 21:01:44 28° ENE 21:01:44 28° ENE 21:04:36 10° NNE
Cosmos 2123 Rocket 4.3 20:57:24 10° NNW 21:03:31 67° W 21:09:37 10° S
Cosmos 841 Rocket 4.4 21:04:54 27° E 21:04:54 27° E 21:08:45 10° NE
Cosmos 220 Rocket 3.8 21:02:43 10° NNW 21:06:56 75° ENE 21:08:40 34° SSE
Cosmos 1814 Rocket 3.9 21:02:48 10° S 21:08:05 66° ESE 21:13:21 10° NNE
Cosmos 1459 Rocket 4.0 21:05:22 13° SSE 21:10:41 53° E 21:16:34 10° NNE
BREEZE-M DEB (TANK) 4.4 21:09:49 10° N 21:11:14 13° NE 21:11:28 13° NE
Cosmos 1697 Rocket 2.7 21:09:10 10° SSW 21:14:50 88° WNW 21:20:30 10° NNE
Milstar 3 Cent rocket 4.4 20:51:10 10° W 21:15:12 69° S 21:22:31 28° ESE
OAO 2 Rocket 3.3 21:10:20 10° W 21:15:22 85° N 21:17:26 37° E
Cosmos 1066 Rocket 4.2 21:11:53 10° N 21:17:33 64° E 21:20:13 32° SSE
Resurs 01 Rocket 4.5 21:16:50 10° SW 21:19:20 15° W 21:21:52 10° WNW
Delta 2 Rocket 4.5 21:17:37 10° W 21:23:02 48° SSW 21:24:27 38° SSE
ALOS 4.0 21:21:06 10° SSW 21:25:14 31° W 21:29:24 10° NW
Cosmos 1975 4.4 21:22:40 10° SSW 21:26:27 36° W 21:30:15 10° NNW
Cosmos 1606 Rocket 4.2 21:27:25 39° NE 21:27:25 39° NE 21:30:43 10° NNE
USA 186 3.8 21:24:34 14° SSW 21:26:32 25° W 21:29:04 10° NW
Cosmos 858 Rocket 4.4 21:23:37 10° NNW 21:28:55 71° ENE 21:30:11 50° SE
ASTEX 1 4.1 21:28:34 10° NNE 21:32:13 36° ENE 21:32:13 36° ENE
BREEZE-M DEB (TANK) 4.5 21:15:45 10° WSW 21:33:44 66° NW 21:38:00 15° NE
Lacrosse 5 rocket 1.8 21:34:09 10° NW 21:37:26 45° WSW 21:37:26 45° WSW
Cosmos 1980 Rocket 2.1 21:32:14 10° SSW 21:37:54 87° ESE 21:43:37 10° NNE
OTV 4 2.7 21:35:41 10° W 21:37:04 22° W 21:37:04 22° W
Envisat 2.8 21:40:38 62° SSE 21:41:29 83° ENE 21:46:35 10° N
Cosmos 2298 Rocket 4.2 21:37:47 10° NNW 21:43:04 68° WSW 21:44:41 44° S
Cosmos 1802 Rocket 3.9 21:40:41 23° S 21:44:58 88° E 21:51:26 10° N
SL-08 R/B 4.4 21:45:24 56° SE 21:46:12 61° E 21:52:18 10° NNE
MetOp-B 4.4 21:49:01 50° ENE 21:49:01 50° ENE 21:53:49 10° N
Cosmos 1937 Rocket 3.3 21:43:44 10° NNW 21:49:02 87° ENE 21:49:28 76° SSE
Cosmos 1726 Rocket 4.5 21:51:28 39° NNE 21:51:28 39° NNE 21:54:17 10° N
Tiangong 1 3.7 21:50:04 10° NW 21:51:19 18° NNW 21:51:19 18° NNW
H-2A R/B 4.1 21:58:29 14° NE 21:58:29 14° NE 21:59:32 10° NNE
Cosmos 2016 Rocket 3.9 21:55:44 46° S 21:57:42 87° W 22:03:55 10° N
Cosmos 990 Rocket 4.0 21:56:09 10° NNW 22:00:58 73° N 22:00:58 73° N
Cosmos 1939 Rocket 3.9 22:01:50 44° W 22:01:50 44° W 22:05:35 10° NNW
Cosmos 1825 Rocket 4.4 22:03:15 10° NNW 22:06:47 49° NW 22:06:47 49° NW
Cosmos 2263 Rocket 4.2 22:04:58 10° NNE 22:07:11 16° NE 22:07:11 16° NE
ERS-1 Rocket 4.2 22:08:10 32° SW 22:09:27 37° W 22:14:06 10° NNW
Cosmos 2322 Rocket 3.9 22:14:22 22° NNE 22:14:22 22° NNE 22:16:16 10° NNE
Cosmos 2098 Rocket 4.0 22:10:27 65° S 22:11:35 90° E 22:17:41 10° N
BREEZE-M TANK 3.5 22:06:32 10° WNW 22:12:07 49° NNW 22:12:07 49° NNW
SPOT 1/Viking Rocket 4.4 22:16:47 41° NNE 22:16:47 41° NNE 22:20:19 10° N
Lacrosse 5 2.4 22:11:18 10° NW 22:15:16 55° NW 22:15:16 55° NW
H-2A R/B 3.5 22:17:55 33° NW 22:17:55 33° NW 22:20:28 10° NNW
SPOT 5 3.5 22:19:02 56° NW 22:19:02 56° NW 22:23:01 10° NNW
Meteor 1-21 4.4 22:12:25 10° NNW 22:18:10 67° W 22:18:18 67° WSW
DELTA 2 R/B (1) 4.3 22:19:06 10° WNW 22:23:11 46° W 22:23:11 46° W
Cosmos 2297 Rocket 4.4 22:21:50 10° WNW 22:25:38 19° W 22:28:02 14° SW
Tsikada Rocket 4.2 22:30:41 10° N 22:36:14 68° NNW 22:36:14 68° NNW
Terra 4.2 22:50:19 16° N 22:50:19 16° N 22:51:23 10° N
USA 215 4.2 22:50:35 38° NNE 22:50:35 38° NNE 22:56:07 10° NNW
SL-16 R/B 3.9 23:09:53 27° N 23:09:53 27° N 23:12:42 10° N
